Starlink 30146

operational
NORAD ID: 57442 Int'l Des: 2023-105 Owner: SPXS Country: US Constellation: starlink
LEOCIRCULAR

Starlink 30146について

説明を読み込み中...

リアルタイム位置

3D地球を読み込み中...

次回通過

高度履歴

Altitude vs Time

uPlot chart will show altitude changes over time

軌道要素

1 57442U 23105N 25349.75188217 .00000180 00000-0 28395-4 0 9995
2 57442 43.0049 357.7866 0001549 271.8381 88.2284 15.02539360132995
Epoch: Dec 15, 2025 • Age: 20 hours

現在のステータス

高度 567.9 km
速度 7.58 km/s
衛星直下点 -33.97°S, 79.79°W
打ち上げ日 Jul 24, 2023
運用期間 2.3 years
タイプ internet

技術仕様

分類 Payload
質量 730.00 kg
乾燥質量 700.00 kg
総質量 730.00 kg
長さ 0.30 m
直径 4.10 m
スパン 29.00 m
形状 Box + pan
製造者 SPXS
バスタイプ Starlink V2M
フェーズステータス In Orbit
所有者/国 SPXS/US

大規模コンステレーション

Loading constellations...